Location: Newark
(55.4390°N, 25.0170°E)
Time: 22:41:47
(UTC+00:00)

Envisat - Pass Details

Date: 09 March 2021
Orbit: 764 x 766 km, 98.1° (Epoch: 22 April)

Event Time Altitude Azimuth Distance (km) Brightness Sun altitude
Rises 02:52:51 0° 23° (NNE) 3,248 6.9 -17.3°
Reaches altitude 10° 02:55:44 10° 39° (NE) 2,316 6.3 -16.9°
Maximum altitude 02:59:34 21° 88° (E) 1,671 5.7 -16.4°
Drops below altitude 10° 03:03:23 10° 137° (SE) 2,302 5.8 -15.9°
Sets 03:06:13 0° 153° (SSE) 3,223 6.4 -15.5°
